Theta_e
348 348 349 350 349 349 349 349 349 348 350 349 348 348 345 340 340 339 341 341 341 340 337 336 340 341 340 340 341 342 343 343 343 343 344 344 347 345 342 340 340 338 338 337 338 338 337 334 334 334 334 333 331 329 330 333 333 333 332 330 330 330 330 330 328 328 329 328 328 328 328 329 329 329 329 329 331 334 334 335 335 336 335 335 335
348 348 347 348 348 349 351 349 350 350 350 350 349 349 347 346 345 340 336 340 340 341 339 338 336 337 339 340 341 342 344 342 342 342 342 343 346 345 342 341 340 338 338 339 338 338 336 335 336 335 335 335 332 331 332 334 333 332 331 330 330 330 330 328 328 329 329 329 329 329 329 329 329 329 329 329 331 333 334 334 335 335 335 335 334
347 346 346 347 349 348 348 349 348 350 351 349 351 349 349 347 347 347 343 340 340 341 340 338 338 335 338 339 340 343 344 345 342 342 342 345 346 347 344 342 339 339 338 339 339 338 336 336 337 336 336 336 334 333 334 334 333 332 330 329 330 330 329 328 329 329 329 328 330 330 330 330 329 329 330 330 330 331 333 333 334 335 335 335 334
348 347 348 348 348 347 348 348 347 349 350 349 349 350 350 349 350 350 350 349 342 341 341 339 339 337 338 337 339 341 342 343 343 342 342 342 343 345 347 344 341 339 339 339 339 339 337 336 336 337 336 336 335 332 334 334 332 331 330 330 330 329 329 328 328 328 329 329 331 331 331 330 330 330 330 330 330 330 332 332 333 334 334 335 334
349 349 348 347 347 348 350 350 349 350 349 349 349 348 349 348 348 349 348 348 347 344 340 340 339 339 338 337 339 340 342 342 344 343 343 344 343 343 346 346 345 339 339 339 339 339 338 337 337 337 337 336 334 332 332 334 332 331 330 330 331 330 329 329 329 329 330 330 331 331 331 331 331 330 330 329 329 330 330 332 332 333 334 334 334
348 349 348 348 350 351 350 349 349 348 348 348 346 346 345 344 343 345 343 344 343 343 341 341 338 337 339 339 339 341 342 343 341 340 343 343 344 345 344 344 343 345 340 339 339 339 338 339 338 337 337 336 334 332 333 333 333 331 330 331 331 330 329 329 329 330 331 331 331 331 331 331 331 330 329 329 329 329 330 331 331 332 333 333 333
348 348 347 347 347 346 346 345 347 347 346 345 345 347 345 344 343 342 343 343 342 341 340 341 341 340 339 340 338 339 343 343 342 342 343 344 344 345 345 344 342 344 344 342 339 339 339 339 338 339 339 336 336 333 333 333 332 331 330 329 330 331 329 329 330 331 331 332 331 331 331 331 330 329 329 329 329 329 329 330 330 331 331 332 333
348 348 347 347 346 345 345 346 346 345 345 345 345 343 344 345 345 345 342 341 340 340 341 341 341 341 344 345 343 341 339 340 342 342 342 342 342 345 346 345 345 344 344 343 343 338 339 338 339 339 339 337 335 334 332 332 332 332 331 330 330 330 329 329 331 331 331 332 331 330 331 330 329 329 329 329 328 329 329 329 330 330 331 331 331
349 348 348 348 346 346 345 346 347 345 345 345 343 343 343 342 342 345 345 340 338 338 339 340 341 343 344 345 346 345 342 341 342 343 343 343 340 340 345 345 345 343 345 342 344 341 338 338 338 338 337 337 335 334 331 333 333 333 331 331 331 330 329 329 332 332 332 332 331 331 331 330 329 330 329 329 329 329 329 329 329 330 330 330 331
348 348 348 348 347 346 346 347 345 345 344 344 343 343 343 342 340 342 342 343 340 339 339 339 341 342 342 343 344 344 344 346 345 343 342 341 338 337 343 346 346 346 344 345 343 342 340 338 338 337 337 336 336 334 332 332 333 333 331 331 331 331 329 330 332 331 332 332 331 330 330 330 330 330 329 329 330 330 329 329 329 329 329 330 330
348 348 348 347 346 346 346 346 345 344 344 343 343 343 342 342 340 339 341 340 339 340 341 341 341 341 341 342 343 343 344 343 343 342 343 344 341 342 345 344 345 345 346 345 343 343 343 340 338 338 336 336 336 335 333 332 332 332 332 331 331 331 330 330 333 332 332 333 332 331 330 330 330 330 329 329 330 330 330 330 330 330 329 329 329
347 349 348 347 346 345 345 345 344 344 342 341 340 341 341 339 339 339 338 339 340 340 341 341 340 341 340 340 341 339 341 341 342 341 341 342 343 342 342 343 343 343 344 344 343 344 343 342 340 339 338 336 335 334 334 333 334 333 331 331 332 330 329 330 332 334 332 332 331 331 330 330 330 330 329 330 330 330 331 330 330 330 329 329 329
348 347 346 346 346 345 345 344 344 344 342 342 342 341 341 341 339 340 338 338 337 339 339 338 335 333 335 336 338 340 339 338 338 340 340 339 340 340 341 341 342 342 343 344 343 343 343 342 341 340 339 339 335 334 333 333 333 334 332 331 332 330 330 331 332 335 333 332 331 331 330 331 330 329 330 330 330 331 331 331 330 330 329 329 329
348 348 347 347 345 344 345 343 345 343 342 342 343 341 341 341 340 338 339 336 335 338 338 336 331 328 327 329 330 334 339 339 337 337 338 339 340 340 341 341 340 342 343 341 341 342 342 342 342 340 339 340 340 336 334 333 332 334 332 332 331 331 330 330 333 335 334 333 331 331 330 330 330 330 330 330 330 331 331 330 330 330 329 329 330
348 347 348 347 347 345 343 344 344 345 342 341 341 340 340 340 339 336 335 338 336 339 338 337 330 332 332 329 325 325 331 335 337 337 338 339 340 340 340 339 338 342 342 342 341 340 340 340 340 340 340 339 339 338 335 333 331 331 332 332 331 331 330 330 333 335 335 334 332 331 330 330 330 330 330 330 330 330 330 330 330 330 330 330 330
347 348 348 349 348 344 349 344 347 348 343 343 342 341 344 342 342 340 337 334 334 335 340 338 334 331 324 325 325 326 321 327 332 337 340 340 341 340 339 339 340 340 340 339 340 341 340 339 338 339 340 340 340 339 337 335 332 331 329 331 332 332 331 331 333 335 335 334 332 332 330 330 330 330 330 330 330 330 330 330 330 330 330 330 330
346 347 347 349 349 349 347 345 344 343 343 341 340 339 341 341 342 341 340 336 332 334 337 339 339 336 330 325 324 323 323 325 328 329 337 338 340 341 340 340 339 339 339 339 340 340 340 341 339 339 340 339 340 338 337 335 333 333 330 330 332 332 331 332 333 335 336 335 333 332 331 330 330 330 330 331 330 330 330 330 330 330 330 330 329
345 346 347 347 347 345 346 343 343 342 342 342 342 342 342 345 343 344 341 342 337 334 333 337 338 338 338 335 334 325 323 327 326 322 337 340 339 340 341 341 340 340 340 340 339 339 339 340 341 338 338 338 338 337 337 336 334 331 331 329 329 329 328 330 334 335 337 336 334 334 333 331 330 330 330 330 331 330 330 330 330 330 330 330 329
344 344 344 343 343 343 343 342 342 341 342 341 340 341 339 340 340 341 339 339 340 334 336 334 338 340 340 340 339 337 335 329 325 326 322 330 336 337 339 340 340 339 337 339 340 339 339 339 339 339 338 337 337 337 337 336 334 331 330 328 327 327 326 325 329 335 337 335 336 335 335 333 331 331 331 331 331 330 330 330 329 330 330 329 329
342 342 342 342 341 341 341 340 339 341 339 338 339 339 340 340 341 341 343 340 339 335 334 334 331 332 338 338 335 337 336 335 334 328 326 322 326 334 338 340 341 341 340 339 339 339 340 338 336 337 338 337 336 336 336 336 336 333 330 327 327 327 326 326 324 324 332 333 336 336 335 334 333 331 331 330 330 330 330 330 329 329 329 329 329
340 339 339 338 338 339 340 338 338 338 337 338 339 339 340 339 339 338 338 338 339 338 337 336 336 333 335 336 336 336 334 333 331 333 327 324 324 326 328 334 337 337 339 341 341 341 340 339 337 337 338 339 338 336 335 336 336 336 330 324 326 325 325 326 322 321 321 330 333 335 335 334 335 334 332 330 330 330 330 330 329 329 329 328 327
338 337 336 336 335 335 335 336 337 336 336 338 339 339 339 339 339 339 339 338 338 338 335 335 335 334 335 333 331 331 331 332 332 328 328 330 325 324 327 327 327 331 337 337 337 339 340 340 339 339 338 338 338 338 336 335 336 335 331 324 325 324 324 324 321 318 318 325 332 333 334 334 335 335 333 331 331 330 330 330 330 330 330 329 327
334 335 333 333 334 334 334 335 336 336 336 337 338 337 338 338 338 338 337 337 335 337 336 337 336 334 335 333 332 331 329 327 329 329 329 327 327 325 327 327 326 327 331 336 337 338 337 339 338 338 340 339 338 338 336 336 333 331 328 325 324 325 324 322 320 316 316 325 331 333 333 334 335 333 333 331 330 331 330 330 331 330 329 329 328
331 330 330 331 332 331 332 333 334 335 334 336 337 336 336 336 336 336 336 336 337 336 336 335 335 333 334 334 333 333 332 332 330 330 328 327 327 325 324 327 327 326 329 332 336 335 338 336 337 338 339 339 338 338 337 335 335 329 329 324 324 324 324 323 320 318 314 322 327 332 334 336 334 333 333 332 331 331 331 332 331 331 330 329 328
326 326 327 328 328 328 329 329 330 332 333 333 334 335 335 335 335 336 336 335 334 335 333 335 335 333 332 333 333 333 332 332 333 332 330 330 328 325 326 326 324 325 328 329 330 332 334 336 338 338 338 338 338 337 336 336 337 329 326 325 322 321 322 326 325 319 315 316 322 328 332 331 333 334 333 332 331 330 330 330 327 325 325 326 326
325 325 325 326 326 327 327 326 327 328 329 331 332 333 334 333 334 334 334 335 335 335 334 335 335 335 335 333 333 332 332 333 333 332 330 328 327 325 325 325 327 325 327 327 329 328 330 335 338 339 338 338 339 338 336 336 336 328 325 332 324 320 319 320 323 322 318 315 315 318 322 325 327 328 329 330 330 325 323 322 320 319 318 318 322
325 325 324 324 324 325 325 325 325 326 327 329 330 331 333 333 333 334 334 334 334 334 334 334 333 334 335 333 332 333 333 332 332 332 331 329 329 328 325 321 322 325 323 326 327 328 327 332 336 337 339 339 340 340 337 337 333 327 322 330 330 318 317 317 321 322 319 316 313 315 316 319 321 321 321 321 321 321 324 323 321 318 316 316 318
325 323 323 322 322 322 322 323 323 325 326 327 328 329 330 330 330 331 331 333 333 333 332 333 333 334 334 334 332 332 333 332 333 333 332 332 331 330 328 325 321 318 322 322 324 325 330 330 332 337 339 340 342 342 337 335 336 326 326 329 330 323 316 315 317 322 320 318 316 315 314 315 317 317 319 321 323 324 323 323 321 318 316 316 320
321 322 321 321 321 320 320 321 321 322 322 323 324 325 326 327 328 328 329 330 329 329 329 330 332 333 333 333 332 332 332 333 332 332 332 332 330 331 331 328 327 322 318 318 322 323 327 329 327 333 339 340 341 341 337 334 330 330 331 330 329 328 318 315 314 317 318 316 317 315 316 316 316 319 322 325 325 325 324 323 320 318 316 318 323
318 319 319 319 319 318 318 319 320 320 320 321 321 322 323 323 325 325 326 327 326 327 328 328 328 329 330 332 333 331 333 333 332 332 332 331 331 332 330 330 329 323 322 318 319 325 326 331 332 330 334 336 339 340 338 334 326 329 331 330 329 328 318 314 313 313 314 315 314 311 312 314 316 321 325 327 324 323 323 321 318 317 318 321 325
317 317 317 317 317 318 318 318 318 318 319 319 320 320 320 320 321 322 323 323 322 322 325 326 326 326 327 328 330 330 333 332 331 332 333 332 331 333 332 332 330 328 325 322 318 325 330 326 331 333 332 336 338 339 338 335 331 329 330 330 329 323 318 316 314 313 314 314 313 313 314 314 313 316 320 323 323 322 321 320 322 320 321 323 320
317 317 316 316 316 317 317 317 318 318 318 317 317 318 318 319 319 320 320 320 319 319 320 322 324 325 325 326 327 327 329 330 331 331 331 333 333 332 332 331 331 330 330 324 322 321 329 329 329 330 331 335 338 338 338 335 333 322 331 331 330 321 324 323 313 313 312 312 313 315 319 317 313 316 319 322 323 323 322 322 322 323 321 318 315
316 316 316 316 315 316 316 316 316 316 316 316 317 318 318 318 318 318 317 316 316 317 317 318 320 322 324 324 324 325 327 327 328 330 330 331 332 332 331 331 329 330 328 326 323 323 328 333 331 329 332 335 334 337 335 334 333 329 326 330 331 330 328 326 320 313 312 311 311 311 312 312 312 318 321 323 325 325 321 318 319 316 317 317 313
315 314 315 315 315 316 315 315 315 315 315 316 317 317 316 316 317 316 315 314 314 314 315 315 316 318 320 321 323 325 327 325 326 326 328 330 331 331 330 329 330 329 331 325 323 323 324 330 330 332 331 335 332 335 333 332 332 331 326 329 330 330 329 327 326 321 310 312 310 310 310 311 311 314 315 314 316 317 316 313 314 312 315 313 308
314 314 314 314 314 314 314 314 314 314 314 315 316 315 314 314 313 314 314 313 312 311 312 314 315 315 316 319 321 324 326 326 326 328 329 329 331 331 331 331 328 327 331 330 328 323 323 326 330 328 329 331 333 333 334 334 333 334 329 328 328 328 328 327 326 326 311 309 309 310 309 310 310 311 312 313 313 313 312 311 311 310 310 310 306
312 313 313 313 313 313 312 312 312 312 313 314 315 314 313 313 313 313 313 313 311 311 311 312 313 314 315 316 319 321 321 321 323 325 327 327 326 329 332 330 328 327 328 332 331 325 324 323 327 327 328 328 332 334 337 338 336 334 332 330 329 328 328 327 327 327 317 309 309 310 310 310 310 310 311 312 313 312 311 311 310 309 308 309 307
312 312 312 312 312 311 311 311 311 311 312 312 312 312 313 313 313 313 313 313 312 312 311 311 312 312 312 313 314 316 317 317 319 322 324 326 327 327 326 326 326 327 327 327 328 329 324 323 325 328 329 329 331 334 337 334 333 333 333 330 328 328 328 329 328 327 317 309 310 310 310 309 309 309 310 311 311 311 310 310 309 308 308 308 307
312 312 312 311 311 311 311 311 311 311 311 310 310 310 311 313 312 313 313 312 312 312 312 312 313 313 313 314 314 316 317 317 318 320 320 322 323 325 327 329 330 331 330 328 326 327 328 327 328 324 328 327 328 330 332 333 327 328 327 329 328 327 327 326 328 328 327 319 315 315 311 310 309 309 309 310 310 309 309 309 309 308 308 307 307
311 311 311 310 311 311 312 312 311 310 309 309 308 308 309 311 311 313 313 313 313 312 311 311 312 312 311 312 312 314 314 314 314 313 315 316 318 321 324 325 325 326 326 326 327 328 328 325 325 326 325 328 329 328 331 333 333 331 327 325 324 327 327 326 325 328 329 323 317 312 315 315 314 314 310 310 310 310 310 308 308 308 308 307 306
311 311 310 311 312 312 312 312 311 309 307 305 304 304 306 308 311 312 313 313 313 312 311 310 310 310 311 311 311 313 312 311 310 310 311 311 313 316 319 320 320 320 321 323 324 325 325 324 323 324 326 325 327 330 331 331 327 327 328 325 322 324 324 326 326 325 325 320 319 317 313 313 313 312 310 309 310 309 308 308 309 310 308 307 305
311 311 311 311 311 311 312 312 310 307 304 303 302 300 302 305 312 312 312 312 312 310 309 309 310 312 312 312 311 311 311 311 307 306 305 306 310 312 314 316 318 319 319 320 320 321 321 322 323 324 325 324 326 326 325 324 322 321 326 327 324 325 325 324 326 328 324 321 320 319 316 317 318 317 318 318 319 313 312 311 312 309 308 306 305
310 311 311 311 311 311 310 310 309 307 303 302 298 295 296 301 308 312 311 310 310 310 309 310 311 312 312 312 312 310 308 307 306 301 300 301 304 309 312 313 312 313 315 316 317 319 319 319 320 320 320 321 324 327 325 324 325 326 327 327 323 326 325 323 324 327 328 325 320 317 318 319 319 318 319 318 320 317 321 318 321 314 309 305 305
310 310 311 310 310 310 310 309 308 307 303 299 293 292 293 294 303 311 310 309 309 309 309 309 309 310 311 311 311 310 309 307 307 300 299 300 300 300 300 302 306 309 309 309 310 312 312 313 315 317 319 321 324 327 327 326 325 325 323 325 325 325 321 319 317 324 329 325 321 318 317 319 319 318 319 321 321 319 323 320 311 308 307 304 304
310 310 309 309 309 310 310 309 308 306 304 295 292 293 293 293 296 307 310 309 309 308 308 308 308 308 308 309 310 310 309 307 306 306 305 302 301 301 301 299 297 296 298 305 305 307 308 308 309 312 313 315 318 322 325 326 325 324 323 323 325 323 321 319 319 318 324 325 320 317 317 319 321 320 319 321 323 321 322 316 308 307 305 304 304
310 309 308 308 308 309 309 308 307 305 302 294 292 292 293 293 293 301 310 309 308 308 308 308 307 307 307 307 308 308 308 307 307 304 306 309 307 305 305 305 299 298 296 296 297 305 307 307 308 309 311 311 311 314 316 317 322 323 322 322 322 322 321 320 321 322 320 323 320 317 315 318 319 317 318 320 321 320 321 311 307 306 305 304 304
309 308 308 307 307 308 308 308 307 305 301 294 292 292 293 293 292 298 310 309 308 308 307 307 306 306 305 305 306 306 307 307 304 302 304 308 313 314 314 314 314 309 302 300 299 298 302 307 306 306 307 308 306 308 310 312 312 315 321 322 322 321 320 320 324 324 321 321 319 318 315 315 317 317 316 319 322 320 321 313 305 305 304 304 303
308 307 307 307 306 307 307 307 307 305 300 291 292 292 292 293 292 301 309 309 308 307 306 306 306 305 305 305 306 305 305 305 302 297 300 305 310 310 311 311 311 311 311 309 308 307 306 306 305 305 304 305 304 304 306 306 309 313 318 321 322 322 323 325 324 325 321 320 321 319 314 315 317 316 317 318 320 320 318 306 305 304 303 303 302
307 306 307 307 306 306 306 306 306 304 302 291 291 292 292 291 294 309 309 308 307 306 305 305 305 304 303 303 303 303 303 302 297 292 294 300 309 308 308 309 309 310 309 306 301 300 305 307 306 305 305 305 298 302 302 301 304 311 316 321 322 322 320 319 317 316 316 318 321 318 315 314 317 314 309 311 312 312 311 309 303 304 303 302 301
305 305 305 305 305 305 305 306 305 304 302 295 291 291 292 291 299 309 308 307 306 305 304 304 304 304 303 301 300 299 300 299 294 290 292 295 307 306 307 307 308 308 308 309 302 299 297 296 296 295 295 295 295 296 295 296 298 303 312 315 318 320 317 315 315 314 314 315 319 320 316 310 311 306 301 302 302 300 302 303 304 301 300 300 299
304 305 305 305 305 305 304 304 304 304 302 296 291 291 291 291 296 307 307 306 306 305 305 305 304 303 302 300 300 298 298 298 292 290 291 298 305 305 306 305 305 305 306 308 307 308 300 299 298 297 297 296 297 298 298 297 297 301 308 310 315 319 315 315 313 313 316 316 316 318 311 306 304 302 299 300 298 298 299 299 299 299 299 298 297
305 305 305 305 305 305 304 303 301 303 303 298 292 291 291 291 297 307 305 305 304 303 303 303 303 303 302 301 299 296 296 294 290 291 291 296 304 303 304 304 302 303 304 307 305 305 306 307 307 307 306 304 308 308 307 299 299 303 306 306 309 314 315 315 315 313 310 307 307 312 304 301 301 302 301 297 293 296 298 298 298 299 299 299 298
Wind_Speed
4 4 2 2 2 2 1 1 1 1 1 2 1 1 2 2 3 4 4 5 4 4 6 7 6 6 6 6 6 5 5 4 4 4 4 4 4 9 13 12 10 9 10 9 9 8 10 6 6 6 7 7 5 3 5 4 4 5 5 4 3 2 4 4 3 4 6 6 6 6 5 6 6 6 5 4 6 8 9 10 11 12 11 12 14
4 3 3 3 3 2 1 1 0 1 1 1 1 2 2 2 3 4 5 4 5 5 5 6 7 8 7 7 6 6 5 5 5 5 4 4 4 4 14 13 10 11 10 11 10 10 7 7 8 7 7 8 6 7 5 4 5 6 5 4 3 4 3 3 5 6 7 7 6 7 6 6 6 7 6 4 6 8 9 10 11 12 12 11 12
1 2 2 2 1 2 1 1 1 1 2 1 1 2 2 2 3 3 4 5 5 5 5 6 6 7 8 8 8 6 5 5 5 6 6 5 4 4 10 14 13 11 11 9 10 10 9 8 10 7 7 8 8 7 6 8 7 6 5 4 4 4 4 4 6 7 7 6 7 7 7 7 7 7 8 6 6 8 8 9 10 11 12 13 12
3 3 3 2 2 1 1 1 0 0 1 2 2 3 3 2 3 4 4 5 6 6 5 6 6 7 7 8 8 7 6 5 5 5 5 5 5 5 5 10 14 13 13 11 11 9 9 10 8 9 8 8 9 7 8 9 9 7 5 5 6 5 5 6 7 8 7 7 8 8 8 7 6 7 8 7 6 7 8 8 9 11 12 13 13
3 3 2 2 1 1 1 1 0 2 1 2 3 3 2 2 3 4 5 5 5 6 6 6 7 7 7 7 6 7 6 5 5 5 6 6 5 5 6 6 9 14 13 13 11 9 11 11 11 9 9 10 9 7 8 10 9 8 7 6 7 6 6 6 8 7 6 7 8 8 8 8 8 7 8 8 8 8 7 9 9 10 12 14 15
3 3 2 2 1 1 1 0 2 1 1 2 2 1 2 2 3 4 4 5 5 6 6 7 7 7 6 7 7 6 5 6 6 6 6 6 5 6 6 6 6 7 10 15 12 11 11 11 13 11 10 11 9 9 9 9 9 9 8 7 7 7 7 7 7 6 8 8 9 9 9 9 9 8 8 9 8 9 9 9 9 11 11 12 13
2 3 3 2 2 1 1 1 1 1 2 1 2 3 3 3 3 5 4 4 6 5 6 7 6 6 7 6 7 7 6 7 7 7 6 5 5 6 6 7 7 7 7 8 12 13 11 11 13 10 9 9 12 10 10 11 9 9 8 8 8 9 9 8 8 8 9 10 10 9 9 10 9 9 8 9 9 10 9 9 10 9 11 11 12
3 3 2 2 2 1 0 1 1 2 2 2 3 4 3 3 3 3 4 4 5 5 6 6 6 7 6 6 6 6 7 7 7 7 5 5 6 6 6 7 7 7 6 6 7 11 15 13 11 10 9 9 11 11 11 10 10 11 9 10 10 10 9 9 9 9 10 11 11 10 10 10 9 9 8 9 10 11 11 10 10 10 11 11 11
3 3 2 2 2 2 0 0 1 2 3 3 3 3 3 3 3 3 4 4 5 6 6 6 7 7 7 7 7 7 7 7 6 6 5 7 8 7 7 7 8 8 7 7 7 7 16 16 13 10 8 8 10 12 10 11 11 12 11 11 11 11 11 11 10 10 11 11 12 11 11 11 10 9 9 10 11 11 11 11 10 10 11 11 11
3 2 2 1 2 2 1 1 2 3 3 3 3 2 2 3 5 4 4 4 4 5 5 6 5 6 6 6 6 6 6 6 6 6 7 8 8 8 8 7 7 8 8 8 7 7 6 13 15 11 9 10 10 11 12 11 12 13 12 12 12 12 11 12 11 11 12 13 12 12 11 10 10 10 10 10 10 10 11 10 10 11 12 12 12
2 1 2 2 2 1 2 2 3 3 3 4 3 3 3 2 4 5 5 5 4 4 5 5 5 5 5 5 5 6 6 6 6 6 6 7 8 8 7 7 7 8 8 8 8 7 7 8 9 9 10 13 11 11 13 12 12 14 13 13 14 14 13 13 12 12 13 14 13 12 11 11 10 10 10 10 10 11 11 11 11 12 12 12 12
2 2 2 1 2 2 1 2 2 3 3 4 3 2 3 3 4 4 6 5 5 5 5 5 5 6 6 6 6 7 8 7 7 7 7 7 7 7 7 7 7 7 8 8 8 8 8 8 7 8 8 13 15 14 14 12 9 12 14 13 15 15 14 14 14 15 14 15 14 13 11 11 11 11 11 11 11 11 11 11 12 12 12 12 13
3 3 3 3 2 2 2 2 2 2 3 4 4 4 4 4 3 3 5 6 5 4 4 5 6 7 6 7 7 8 9 9 9 9 8 7 7 7 7 7 7 8 8 8 8 9 9 8 8 7 8 7 12 15 15 13 10 12 15 15 16 16 15 16 16 16 16 16 14 14 13 12 12 11 12 12 12 12 12 12 12 12 12 13 13
3 3 3 3 3 2 3 2 2 3 3 3 4 4 5 4 3 3 4 5 6 5 4 4 6 6 6 6 7 7 8 9 9 9 9 7 7 7 7 7 8 8 7 7 8 9 9 8 8 8 8 8 8 10 11 11 11 12 16 14 16 17 16 17 17 17 17 16 15 15 14 14 13 12 12 12 12 12 12 13 12 13 13 14 13
3 3 3 3 2 3 2 2 3 3 4 4 4 4 4 4 5 4 4 5 5 5 5 5 6 6 6 7 7 6 4 6 6 7 8 8 8 8 8 8 10 8 7 7 8 8 8 9 9 8 9 9 8 9 10 11 12 16 14 13 15 17 17 18 19 18 18 18 17 16 15 15 14 13 13 13 12 12 12 13 13 13 13 14 14
3 2 1 1 2 3 2 3 3 3 4 4 4 4 4 4 4 5 6 6 6 6 5 5 6 6 6 5 7 7 9 2 2 5 8 9 9 9 9 8 9 9 8 8 9 8 8 9 9 9 9 9 9 8 9 9 13 15 17 14 14 16 18 19 21 19 19 19 18 18 16 16 15 14 14 12 11 11 12 13 13 14 14 14 15
1 2 2 2 1 2 3 3 4 4 4 5 5 5 4 4 4 5 6 7 7 6 5 5 7 6 8 8 7 6 6 7 7 7 5 7 9 9 8 9 9 9 9 9 9 9 9 10 10 7 9 10 9 9 8 10 8 10 14 16 15 15 18 20 21 21 20 21 20 19 18 17 15 14 14 10 12 13 13 14 14 14 15 15 15
0 0 0 1 2 2 3 4 4 5 5 5 5 5 5 5 5 5 5 6 7 7 8 5 7 8 8 8 8 8 9 9 9 7 2 5 6 8 9 10 9 9 8 9 10 10 9 10 11 10 11 10 10 10 10 10 10 9 10 13 17 16 15 17 21 21 21 22 21 21 20 18 16 13 15 14 15 15 15 15 15 15 16 16 16
1 1 1 2 3 4 5 5 5 5 5 6 6 6 6 6 5 5 7 6 6 8 8 7 5 7 8 8 10 9 9 9 7 9 10 5 7 7 8 9 9 10 10 10 11 10 10 10 10 11 12 9 8 10 10 10 12 13 14 14 18 17 16 15 17 21 22 23 23 22 21 20 17 16 16 16 16 17 16 16 16 17 17 16 16
2 3 4 4 5 5 5 5 6 6 6 6 7 6 6 6 6 7 7 7 7 8 8 8 8 8 6 7 8 9 10 11 11 10 10 11 10 7 8 9 9 9 10 10 11 11 11 11 11 11 11 13 12 10 11 10 12 12 12 13 18 19 18 16 16 15 15 19 23 23 22 21 19 18 18 17 17 17 17 17 17 17 16 16 16
3 3 4 5 5 5 5 6 6 6 6 6 6 7 7 8 8 7 7 7 7 7 7 8 8 8 7 8 8 8 8 8 9 8 10 10 12 11 9 6 8 8 9 10 10 10 10 11 11 12 11 11 13 14 10 11 12 13 15 15 17 21 19 18 17 14 10 17 20 21 23 22 21 21 20 19 18 18 18 17 17 18 17 16 16
3 4 5 5 5 5 5 6 6 6 6 6 7 8 7 7 8 9 8 9 8 8 8 9 9 9 9 9 9 8 8 7 7 8 10 11 12 12 10 12 10 8 7 8 10 11 11 10 11 11 11 11 13 13 11 10 10 12 13 15 18 20 20 18 17 13 12 15 18 20 21 23 22 22 21 20 20 20 19 19 19 19 18 18 16
3 3 3 5 6 5 5 6 6 6 6 7 6 7 7 7 8 9 9 9 8 10 10 10 9 10 10 9 9 9 9 10 10 7 7 8 10 11 11 12 12 13 10 9 7 8 11 10 11 11 11 12 12 12 13 11 12 13 13 14 18 20 20 18 18 15 13 14 19 21 23 24 23 22 22 21 21 21 20 20 19 19 19 19 17
2 3 3 5 5 4 5 6 5 5 6 6 6 7 7 7 7 7 8 8 9 9 9 11 11 9 10 9 9 10 10 10 10 9 10 11 10 12 12 11 12 11 10 9 10 9 7 10 12 12 11 11 11 12 12 15 12 17 13 14 19 20 19 19 18 16 15 14 16 20 23 24 24 22 23 23 22 21 21 22 21 20 20 19 17
2 3 3 5 4 4 5 5 5 5 6 6 7 7 7 7 8 8 9 9 8 9 10 11 11 10 10 10 9 9 10 10 10 10 10 10 11 12 12 12 12 12 10 10 9 9 9 11 12 11 11 12 11 11 12 15 12 15 17 11 21 19 20 18 18 18 16 15 16 18 20 19 21 22 24 23 22 22 22 21 19 18 17 16 16
2 3 4 5 5 5 5 6 6 6 6 6 7 7 7 7 7 8 9 8 9 10 10 11 11 12 10 10 11 11 10 10 9 9 10 10 11 11 11 11 11 12 10 10 10 10 8 9 11 11 11 12 12 12 13 13 12 14 18 13 16 20 21 19 19 19 18 17 17 17 17 16 17 17 20 22 21 19 18 17 17 16 16 15 15
3 3 4 4 5 5 6 6 6 6 6 6 6 6 6 6 7 8 7 8 10 10 10 11 11 12 12 11 12 11 10 10 9 10 10 10 11 11 10 11 11 11 11 10 10 10 10 5 9 10 11 10 11 11 13 12 13 14 16 14 11 20 20 20 19 20 19 19 18 18 17 16 19 16 16 19 20 19 18 17 17 15 15 15 16
3 3 4 4 5 6 5 5 6 7 7 7 8 7 7 7 7 7 8 7 9 11 10 11 12 12 13 12 11 11 11 11 11 10 10 10 10 10 9 9 9 11 11 11 10 9 9 8 10 11 9 10 10 11 13 12 8 13 16 13 11 13 20 20 20 20 20 20 19 19 17 16 17 15 18 17 18 20 19 18 18 16 16 14 14
3 4 4 5 5 5 5 5 6 6 6 6 7 7 8 7 7 8 8 8 8 10 9 10 11 11 11 13 11 10 11 10 10 10 10 10 10 9 9 10 9 11 11 12 12 10 8 9 9 7 9 10 10 9 10 12 13 13 13 14 12 11 17 22 21 19 19 20 20 20 19 17 16 18 17 18 17 20 20 18 18 17 17 16 13
4 4 4 5 5 6 5 6 6 7 7 7 7 7 7 7 8 8 8 9 9 8 9 9 10 10 11 11 11 11 10 11 10 10 10 10 10 10 10 10 9 11 11 12 13 10 10 10 9 9 7 8 8 8 10 14 17 17 15 15 13 13 17 20 19 20 20 20 20 19 19 18 17 20 20 19 17 19 20 17 18 17 18 15 15
5 5 5 6 6 6 6 6 6 7 7 8 8 7 7 6 7 7 8 9 9 10 10 11 10 9 10 12 11 11 12 11 11 11 11 10 10 9 9 9 9 9 10 10 11 11 9 10 9 9 10 9 9 9 10 12 14 16 17 14 15 16 17 19 23 22 20 20 19 18 18 18 19 21 22 20 18 19 19 17 16 17 17 17 19
5 6 6 6 7 7 7 7 8 8 8 8 7 7 7 7 8 8 8 9 10 10 10 9 9 10 11 11 11 10 11 11 11 11 10 10 9 9 9 9 9 10 9 10 11 13 9 11 11 10 10 9 10 10 10 10 11 19 15 10 14 17 14 11 20 21 20 20 21 19 19 19 19 20 21 20 20 20 20 18 15 20 20 20 18
6 6 6 7 7 7 8 8 8 8 8 8 7 7 7 8 8 8 9 9 9 10 10 11 10 11 11 11 11 11 11 12 11 12 11 11 10 9 10 9 9 9 9 9 11 13 12 9 10 10 10 11 10 11 11 10 9 11 14 14 14 11 11 10 12 23 24 21 19 20 20 20 20 20 21 21 21 22 21 19 20 20 20 19 18
7 7 8 7 7 8 8 8 8 8 8 8 8 8 8 9 9 8 8 10 10 10 10 10 10 9 10 11 12 12 11 12 12 13 13 12 10 9 11 11 10 9 8 7 11 11 15 10 10 8 9 9 11 10 11 11 11 11 16 13 13 14 11 12 11 12 21 21 21 21 20 21 20 20 21 20 21 21 20 19 20 20 20 20 19
7 7 7 8 8 8 8 8 8 8 9 8 8 8 8 9 9 9 9 9 10 10 10 10 10 10 10 10 11 10 9 12 13 12 12 12 11 10 11 9 10 12 10 10 9 10 13 13 10 10 9 9 10 10 10 10 10 10 14 15 12 10 11 13 12 10 19 22 23 21 21 20 21 21 21 21 20 21 20 20 20 20 20 20 19
7 7 7 8 8 8 7 8 8 8 9 9 9 9 9 9 9 9 9 9 9 10 10 10 10 10 10 10 10 11 11 11 12 12 12 11 11 11 9 9 9 11 11 10 10 9 11 13 10 10 9 9 9 10 8 9 10 11 12 14 14 14 13 13 13 12 15 24 23 24 22 22 22 21 21 21 21 21 20 21 20 21 21 20 20
7 7 7 7 8 8 8 8 8 9 9 9 10 10 10 9 9 9 9 9 9 9 9 9 10 10 10 10 11 11 11 11 11 11 11 14 12 11 11 11 11 10 9 11 11 9 10 11 12 11 10 10 10 9 8 9 9 11 10 11 13 11 13 13 12 13 15 22 21 22 23 22 21 21 21 21 21 21 21 21 21 20 20 19 19
7 8 8 7 7 8 8 8 8 9 9 9 10 11 11 10 9 9 8 9 9 9 9 10 10 10 10 11 11 11 11 10 10 11 11 13 12 12 13 11 10 9 9 9 9 11 11 12 10 10 9 10 11 10 10 9 10 9 11 11 9 10 11 12 11 11 11 11 12 15 18 18 21 23 23 22 22 22 22 22 21 21 21 20 20
8 8 8 8 8 8 9 9 9 9 10 10 11 12 11 10 10 9 9 9 9 8 9 9 9 9 9 9 9 10 10 11 12 12 12 13 10 12 13 13 12 12 12 12 10 11 11 11 10 10 11 9 10 12 8 9 8 8 8 8 11 9 11 11 11 11 9 10 17 21 17 16 20 19 21 22 23 23 23 23 23 23 23 23 23
9 9 8 9 8 8 9 9 10 9 10 11 12 12 12 10 9 9 8 9 9 8 9 9 9 10 10 9 9 10 10 10 11 12 12 10 10 10 10 9 10 10 10 11 11 11 10 9 9 9 8 8 8 9 9 7 9 10 10 11 12 10 10 10 11 12 7 8 8 11 15 17 16 18 20 21 24 23 23 22 23 23 24 23 22
8 9 9 9 9 9 10 10 10 10 10 11 10 11 11 11 9 8 9 9 10 10 10 10 9 10 10 10 10 10 12 14 12 10 11 10 7 9 10 9 9 8 8 8 9 11 10 10 10 9 9 10 9 8 7 7 11 9 8 9 9 9 7 8 10 10 10 9 8 10 11 10 11 11 9 11 13 20 20 23 20 24 23 22 22
9 8 9 8 9 10 10 11 10 10 10 10 15 19 14 10 9 7 7 9 10 10 11 11 11 11 11 11 10 16 13 16 16 16 17 18 14 6 7 7 8 8 8 8 8 8 9 11 12 11 11 12 11 9 7 8 8 8 7 8 12 9 8 10 8 10 8 8 9 9 10 10 11 10 11 12 12 17 12 15 16 17 21 23 23
9 9 9 9 9 9 11 11 12 11 10 11 18 15 16 16 11 8 8 9 10 10 11 12 12 12 12 12 12 14 16 18 17 16 16 18 16 9 5 4 6 7 8 8 8 8 7 8 9 10 11 12 12 9 8 7 8 9 10 11 10 8 9 10 11 5 9 10 7 8 9 11 14 12 13 11 12 14 13 14 18 23 24 25 24
9 9 9 9 9 9 9 11 12 12 11 17 17 16 15 16 13 8 8 9 10 10 11 12 12 12 13 13 12 11 12 15 15 15 16 16 16 8 5 4 5 7 6 7 8 8 8 8 8 9 9 10 11 11 10 7 7 8 8 9 8 9 10 10 9 9 5 12 10 8 7 9 13 10 11 12 11 11 15 19 23 24 24 25 24
9 9 9 10 9 9 10 11 12 12 11 17 16 15 14 15 15 11 9 10 10 11 12 13 14 14 13 13 12 11 11 17 15 15 14 14 14 9 5 3 9 8 7 4 5 7 9 9 9 10 9 11 12 10 11 13 11 9 9 8 8 8 11 12 11 7 6 11 9 7 7 8 11 12 12 14 15 16 17 20 25 25 25 25 24
8 9 9 10 10 10 10 10 12 11 13 15 15 16 15 15 14 9 11 11 11 12 13 14 14 15 15 14 12 12 14 14 15 17 16 15 13 12 10 10 9 4 4 7 9 9 9 8 9 9 10 10 10 11 13 11 11 10 8 9 11 11 12 14 11 9 7 12 13 8 7 8 12 13 12 14 15 15 14 17 25 26 26 26 25
8 8 8 9 9 10 10 10 11 12 11 17 17 17 17 17 15 7 10 10 10 11 12 13 14 15 15 14 14 13 14 14 15 18 16 15 13 11 11 11 10 10 10 10 11 11 11 9 9 10 10 11 11 11 11 10 11 10 9 10 10 11 12 9 7 8 6 11 11 9 9 7 9 10 11 12 8 12 11 16 26 26 26 25 22
8 8 10 10 10 10 10 10 10 12 12 18 18 18 18 19 16 9 10 10 11 11 12 12 13 14 15 15 13 13 14 14 19 23 20 15 12 12 12 11 11 10 10 9 7 5 6 7 8 9 8 9 9 9 9 10 9 10 10 9 8 8 9 7 8 6 8 9 10 11 7 5 6 9 4 3 4 8 9 11 22 24 23 21 22
7 8 9 9 9 10 11 10 10 11 12 17 18 18 19 20 13 9 9 10 10 11 12 11 11 12 14 16 14 12 13 14 19 22 22 21 9 12 12 11 10 10 11 11 11 7 8 8 8 10 10 10 11 11 8 14 12 11 8 8 9 8 10 10 7 5 8 9 9 10 7 6 5 6 7 7 8 8 5 8 12 21 24 24 23
8 8 8 8 9 10 11 12 11 11 11 15 17 18 19 20 17 9 9 9 10 10 10 11 10 11 12 15 17 13 13 14 19 20 21 18 11 12 12 12 11 11 11 12 11 10 11 9 10 12 10 10 10 11 10 12 14 11 9 6 7 6 9 8 6 5 5 8 9 8 5 5 7 9 11 6 12 8 8 8 11 16 23 24 27
8 8 8 9 9 9 10 11 12 11 11 13 16 16 17 18 15 8 9 9 10 10 10 11 11 11 11 12 14 15 14 15 18 19 20 17 12 13 12 11 11 12 11 13 13 14 14 14 14 14 13 14 14 14 13 13 14 15 10 9 9 8 8 7 6 4 3 1 2 7 9 7 10 5 7 7 7 6 8 8 7 8 11 13 15
Wind_Direction
179 170 166 152 166 153 163 173 174 344 192 220 249 219 228 231 227 235 222 228 218 222 234 242 233 228 234 233 232 232 228 241 260 257 259 264 253 161 172 183 195 206 218 219 225 220 218 215 207 217 200 198 222 226 232 177 183 170 177 174 176 168 164 173 189 162 159 151 141 135 129 130 123 115 102 84 75 95 91 89 89 86 90 99 100
168 185 166 166 175 161 180 185 121 181 246 238 247 238 245 242 244 248 248 229 243 224 232 239 241 238 236 238 223 234 222 230 246 257 256 257 253 157 173 176 196 202 215 223 231 224 224 223 209 216 207 205 205 208 213 172 189 181 175 182 166 174 182 191 184 171 163 166 146 133 134 133 132 128 118 107 109 106 99 90 93 95 97 96 94
176 184 205 208 203 209 205 213 159 181 264 277 283 285 278 274 278 275 268 268 253 245 230 243 245 244 236 239 235 233 238 234 231 245 259 248 244 210 179 181 191 199 210 223 245 235 221 225 211 209 204 209 208 207 197 196 190 182 192 187 176 176 175 190 179 173 169 162 146 145 144 137 134 130 123 110 106 109 108 97 97 101 102 102 102
198 200 213 229 238 262 282 278 227 137 343 335 320 316 301 293 285 271 274 271 264 255 248 251 250 254 246 241 242 233 232 241 242 243 256 270 267 253 208 189 188 197 206 210 226 245 230 218 222 208 206 206 215 210 200 208 210 210 207 185 180 179 171 181 183 176 174 168 161 155 148 142 135 134 127 125 123 123 114 111 103 106 107 109 110
198 209 229 245 261 283 260 284 15 42 6 306 300 290 289 273 262 261 257 256 260 261 263 259 252 252 263 260 250 245 242 241 238 235 230 236 241 248 247 211 199 194 203 209 218 226 232 219 217 216 211 210 213 224 205 211 212 210 219 180 181 188 172 187 183 176 177 167 168 157 148 147 147 136 132 136 134 119 118 118 110 105 110 112 114
205 213 233 234 231 255 309 344 50 33 260 259 255 265 253 261 266 270 254 258 254 254 249 250 252 252 245 255 262 261 249 236 239 242 235 237 244 241 233 241 227 203 202 205 214 217 224 228 222 221 223 215 217 215 218 218 203 205 203 187 202 203 190 188 187 182 179 173 167 156 151 153 150 139 135 139 142 144 138 127 114 108 107 114 109
228 244 234 251 247 229 247 36 35 280 271 280 275 251 243 250 256 265 282 270 272 270 270 272 268 262 261 254 254 254 239 247 249 241 232 233 237 239 236 237 239 237 216 199 201 213 221 221 227 232 251 228 208 213 224 223 194 206 208 201 195 203 198 193 197 194 182 173 167 158 156 153 150 147 143 143 148 149 144 138 130 123 123 117 109
214 226 237 244 249 253 284 39 352 294 274 262 263 267 261 255 251 257 260 264 269 267 261 265 265 261 264 265 262 256 256 250 245 246 245 245 238 245 242 235 238 232 228 239 192 200 207 217 223 230 239 250 216 199 227 223 211 205 200 200 201 200 205 203 202 200 185 176 168 161 158 152 148 149 146 147 150 151 153 151 147 140 131 125 122
189 213 236 247 256 271 256 333 295 292 288 276 265 283 298 293 280 254 262 268 260 266 267 261 266 267 258 256 259 259 257 257 255 252 239 236 244 242 240 235 228 227 228 225 241 208 191 199 211 210 226 225 202 219 225 216 218 208 203 208 206 201 205 206 200 199 187 178 170 164 159 152 150 150 149 149 152 153 151 153 156 151 142 134 127
193 198 227 272 284 290 298 295 285 269 271 267 276 285 300 295 289 283 273 264 272 269 264 261 264 271 272 264 266 267 263 258 252 249 252 251 245 243 246 242 229 225 227 226 225 236 190 200 197 201 208 198 200 210 223 218 218 213 205 207 205 204 203 206 199 195 191 181 175 166 160 154 158 156 153 149 146 146 143 144 151 157 152 143 136
176 211 249 241 259 288 308 303 295 285 271 267 259 252 262 262 285 290 285 280 278 273 279 283 267 263 263 263 257 258 266 266 269 261 253 252 254 251 247 240 235 230 227 227 222 219 229 192 206 210 208 193 200 205 214 231 220 217 210 206 203 205 199 209 198 191 195 187 176 168 164 159 165 164 165 159 151 148 145 143 146 149 152 148 143
181 179 220 255 279 283 286 279 281 288 292 289 297 298 283 283 278 277 286 276 259 260 258 264 262 257 254 254 251 256 253 255 253 251 253 253 252 246 243 238 236 233 238 233 223 221 222 227 217 206 217 189 196 196 205 222 239 211 217 206 206 207 202 208 200 193 194 190 180 171 172 165 171 173 172 167 161 156 151 148 143 144 149 150 149
201 196 203 209 246 250 259 274 271 279 295 297 300 297 294 289 287 276 284 286 271 263 274 280 280 271 255 255 253 248 251 253 252 248 245 246 243 246 240 241 236 234 228 226 230 225 225 221 217 220 212 211 192 197 202 208 223 201 208 206 208 206 203 210 207 197 193 192 185 176 177 171 176 176 174 172 168 162 155 151 145 142 143 146 146
203 208 215 230 246 248 251 274 285 295 294 296 288 277 275 272 273 276 255 276 286 290 286 293 269 280 296 290 273 250 228 228 240 246 249 243 239 237 239 237 238 240 236 228 223 227 230 225 222 215 215 220 201 201 203 207 211 204 212 211 208 209 204 209 210 198 190 193 187 181 182 177 178 179 178 177 174 166 160 155 150 146 143 143 145
206 212 219 230 243 260 286 273 283 290 283 277 272 273 279 278 259 268 278 248 264 263 258 241 279 290 288 286 285 292 202 213 230 241 235 234 230 230 232 233 236 237 246 245 231 220 224 229 225 217 217 217 219 200 204 207 221 192 204 211 211 211 207 208 214 200 192 188 191 184 185 181 180 184 182 182 176 167 165 160 158 154 150 149 148
209 211 220 256 282 288 288 281 269 273 280 282 280 283 279 264 260 265 275 282 265 265 247 248 261 283 284 281 300 300 300 288 240 226 220 225 221 225 227 229 234 232 234 236 237 230 225 223 225 224 220 219 218 209 207 212 205 179 189 208 211 215 210 209 216 206 199 189 190 188 189 184 183 187 187 182 172 168 170 165 164 160 158 154 150
190 220 191 229 246 270 268 275 286 278 273 275 276 272 276 280 274 265 256 273 285 284 264 251 255 261 285 293 286 267 280 305 313 282 234 226 226 230 228 228 230 229 225 230 237 234 229 228 223 213 220 218 216 211 213 217 207 180 187 198 206 215 211 210 214 209 203 193 189 190 189 184 185 189 188 176 172 171 172 170 166 162 160 156 153
204 193 321 222 256 276 287 294 289 290 295 297 294 290 279 271 274 274 266 263 280 284 284 260 256 261 263 273 281 293 302 308 302 292 232 234 250 227 227 229 231 230 227 229 229 231 230 231 226 219 216 217 215 215 215 215 217 198 202 199 201 207 212 212 214 213 204 195 190 191 189 183 186 188 189 182 182 178 175 173 168 163 160 158 155
25 12 358 335 317 314 312 306 305 298 297 294 293 296 294 293 284 270 270 265 254 270 277 282 275 261 262 261 268 268 280 293 289 300 291 266 233 228 228 229 229 230 233 227 229 230 228 230 228 224 217 205 216 219 215 213 216 224 203 199 186 202 212 214 221 220 210 200 190 191 189 184 182 186 189 188 189 183 179 175 172 168 164 159 158
41 19 352 345 339 322 318 314 310 305 306 297 292 293 296 294 295 289 281 280 276 275 283 285 280 280 265 266 257 255 257 259 263 274 280 286 281 253 242 237 232 233 233 233 229 226 227 226 229 224 219 219 213 216 215 210 212 214 213 191 180 196 207 212 219 230 223 207 197 191 187 186 180 187 191 189 191 185 184 180 175 173 167 164 161
340 342 335 335 321 320 317 307 307 307 301 289 289 298 299 298 294 288 287 287 287 286 277 276 274 276 283 272 270 274 272 263 268 263 268 278 278 281 281 242 238 243 237 237 236 233 229 226 224 225 224 218 216 213 211 213 212 212 215 188 185 191 202 208 217 217 206 202 210 202 190 186 184 188 190 189 188 187 187 182 178 176 169 163 167
347 359 344 324 323 325 313 312 307 305 302 300 301 291 288 289 292 295 300 296 289 284 280 281 277 276 272 283 283 280 269 265 258 263 260 254 273 282 283 288 274 256 240 233 236 237 232 228 226 223 222 222 220 215 207 210 211 212 215 187 184 191 199 204 211 208 193 202 202 210 201 190 188 189 187 188 188 188 187 182 180 177 173 168 164
338 3 10 337 327 324 324 314 309 302 297 297 294 300 300 296 294 291 286 287 290 291 287 278 279 280 280 278 278 275 277 279 275 261 264 273 272 271 278 276 280 283 265 252 236 245 247 233 230 226 223 219 221 221 211 207 207 210 207 188 185 189 197 198 206 202 195 200 206 208 207 197 193 192 187 186 187 187 186 182 180 177 176 174 173
346 336 354 340 330 329 320 309 303 306 303 305 301 296 296 296 291 288 290 289 286 282 282 284 281 279 274 272 271 276 275 271 276 272 269 272 272 276 280 287 286 279 282 270 261 246 243 258 237 228 225 221 217 221 219 214 207 205 208 190 186 189 194 196 198 199 198 200 206 209 211 201 196 191 188 184 184 185 183 181 180 179 178 176 179
8 335 352 338 333 332 330 325 318 310 311 307 301 302 301 295 291 291 289 289 288 288 284 284 286 281 282 280 274 272 269 272 273 274 277 278 278 281 280 286 287 291 289 284 265 256 231 240 240 232 227 224 220 216 218 220 211 201 202 189 190 188 195 194 193 196 196 201 205 209 217 209 203 194 190 184 185 184 184 179 179 178 179 178 183
358 343 350 337 339 335 328 323 316 309 303 300 298 299 301 295 293 292 292 291 289 285 283 284 283 284 284 281 279 274 277 276 273 276 280 280 280 280 287 289 287 287 288 280 275 270 241 232 238 237 228 226 220 220 219 216 215 200 195 195 191 192 196 197 196 194 196 200 204 209 211 199 201 205 194 185 183 183 186 181 179 177 174 175 186
7 359 351 342 337 335 334 325 327 318 315 309 303 303 303 307 303 305 304 296 293 291 287 287 285 287 284 283 284 283 275 274 270 272 272 275 279 284 288 291 290 285 287 284 284 263 266 271 279 239 226 222 220 218 218 214 213 200 194 200 194 196 195 198 194 193 196 198 203 209 207 199 194 197 202 189 182 182 186 181 182 178 174 175 182
17 357 1 348 342 339 334 336 335 335 333 332 329 321 322 313 307 304 302 303 300 300 298 293 288 286 284 283 279 275 278 281 282 278 276 271 268 271 273 274 279 287 285 286 286 282 266 257 243 249 236 219 218 216 214 203 197 204 194 205 201 196 198 197 196 195 195 199 202 207 203 201 194 190 199 197 185 183 188 183 180 177 176 176 180
18 12 357 358 354 354 345 343 346 343 343 342 335 331 328 319 315 315 308 311 308 303 299 293 293 294 290 285 283 282 281 280 276 275 275 274 272 269 266 263 266 272 281 284 286 289 285 271 274 242 224 229 224 214 206 202 206 201 202 205 205 203 195 197 198 199 195 198 203 204 203 200 194 187 198 203 194 186 190 184 179 177 177 179 181
30 20 12 12 10 9 359 357 354 352 351 347 345 339 337 324 325 317 314 312 308 303 299 299 295 294 295 292 285 282 277 276 277 275 273 271 273 273 271 268 262 265 270 275 279 284 284 280 273 277 261 240 229 213 207 210 206 200 209 205 201 205 192 197 199 200 198 196 200 202 201 198 192 191 197 200 197 190 191 186 181 179 180 180 179
36 30 26 23 19 14 14 9 5 5 3 2 356 356 349 341 333 323 324 322 314 307 305 303 301 294 287 290 298 297 293 288 280 273 271 277 272 268 268 265 260 256 260 252 266 271 268 279 280 278 278 263 235 227 219 225 207 199 207 204 200 201 190 193 196 203 199 197 197 199 200 197 192 194 194 198 199 193 190 186 183 182 182 181 182
38 34 34 28 22 19 18 13 11 10 7 5 358 353 350 347 342 336 332 325 318 312 308 307 306 302 297 290 290 298 303 301 292 287 289 283 276 267 261 262 264 264 262 265 266 272 273 275 280 278 268 261 249 238 225 230 209 195 205 198 199 196 197 197 198 196 200 198 197 196 196 195 193 193 193 196 199 197 192 186 181 183 183 182 181
35 37 37 33 28 24 21 20 17 12 5 3 356 351 348 345 338 331 324 322 316 314 312 309 305 300 296 294 294 293 294 294 295 297 293 288 280 278 273 261 265 266 264 264 263 269 272 264 274 279 281 276 258 238 236 230 215 197 203 203 199 196 196 193 195 200 199 196 198 197 197 195 194 192 192 195 196 197 193 188 185 184 182 181 181
39 37 37 35 29 28 27 22 17 12 6 2 357 352 347 340 337 335 329 325 321 318 317 313 311 309 307 302 299 299 303 296 293 292 295 297 288 278 283 286 268 257 252 268 265 271 279 281 269 270 268 255 261 248 245 235 226 195 201 208 212 204 195 194 199 197 200 196 196 198 197 195 194 193 192 193 193 194 190 188 188 184 185 183 182
40 37 36 36 34 30 27 22 17 11 6 1 355 352 347 342 339 337 332 329 324 320 320 322 321 317 309 304 303 306 308 309 307 301 297 290 287 289 283 274 273 270 260 256 276 280 276 272 276 280 276 263 249 254 239 235 223 202 198 206 206 202 200 197 200 201 191 197 194 197 198 195 194 195 193 193 192 191 188 187 188 186 188 184 183
44 40 39 36 36 32 26 21 19 13 9 4 357 354 350 344 341 338 337 335 329 325 323 323 324 323 320 315 313 319 320 314 308 305 300 298 297 287 276 272 271 277 275 269 254 259 280 283 280 280 279 276 260 252 244 228 220 217 207 207 206 205 204 202 200 206 190 196 195 195 196 198 196 195 193 192 192 190 188 185 186 188 187 184 182
46 45 46 40 37 36 29 25 23 18 13 6 359 355 352 348 344 342 340 339 336 333 332 328 325 322 318 315 314 314 314 310 306 306 315 323 318 315 305 299 293 295 298 288 278 264 269 276 280 274 274 274 276 266 239 230 221 223 206 209 203 205 205 201 203 206 194 189 194 197 198 199 196 193 194 194 192 189 184 185 186 185 186 181 179
51 49 47 43 37 37 35 33 29 23 16 9 1 354 350 349 348 342 343 344 341 339 337 336 335 334 330 326 324 323 322 322 324 329 326 322 318 312 308 302 297 291 285 277 275 277 276 275 277 283 273 272 272 266 257 229 230 225 225 213 199 201 202 204 204 200 201 186 194 199 198 196 196 196 195 193 192 187 184 184 184 184 181 178 180
51 51 48 49 44 40 41 37 33 22 16 10 2 355 349 349 347 347 350 352 352 355 351 350 351 350 347 343 340 340 341 343 342 335 332 329 325 317 312 318 316 313 306 302 296 287 282 278 275 270 275 272 270 270 248 228 212 215 217 217 223 210 204 204 203 202 191 183 197 191 190 190 197 198 195 194 191 188 186 185 185 184 184 181 182
53 51 47 46 46 44 41 39 32 25 16 12 6 356 347 341 342 354 359 1 5 7 6 1 357 355 355 355 349 349 350 350 342 335 336 331 324 320 324 322 320 315 309 306 304 298 294 286 280 282 271 272 262 256 259 218 232 229 217 222 226 213 210 207 205 199 170 160 173 183 193 194 198 200 198 195 192 189 187 185 186 188 186 183 183
55 51 50 46 44 43 42 39 34 29 22 13 6 352 346 339 335 1 2 6 7 6 6 5 4 4 3 0 358 354 347 346 336 337 330 316 309 321 328 326 320 314 306 301 300 299 294 290 286 281 279 278 275 267 257 239 234 234 219 210 226 228 213 210 212 201 179 168 165 172 186 175 176 187 182 196 195 189 188 187 188 188 186 184 182
56 52 51 48 43 42 41 37 36 30 23 15 353 343 340 337 328 7 6 11 9 9 6 5 6 5 6 3 357 356 350 350 349 351 342 331 324 318 338 350 353 339 329 318 308 310 308 298 294 294 286 283 282 272 256 245 242 241 229 214 225 219 214 221 218 217 175 168 160 177 183 178 181 177 177 186 186 188 186 187 190 186 184 183 182
55 52 48 47 45 43 42 39 33 29 24 7 347 344 341 338 334 3 18 15 15 15 14 10 6 3 4 4 1 1 359 358 354 350 339 327 319 314 11 44 35 19 354 338 332 324 314 311 311 307 301 295 287 277 262 246 237 234 239 229 229 213 215 214 218 197 186 168 157 166 182 180 187 187 187 185 176 182 187 190 180 178 180 182 180
56 53 51 47 46 45 44 42 37 29 24 8 347 348 343 339 336 341 29 23 23 24 20 18 16 10 8 9 8 7 5 0 356 350 346 326 311 304 310 158 108 105 54 12 340 331 331 317 310 308 306 300 305 304 291 263 243 243 239 232 217 213 213 216 214 209 173 174 177 173 177 173 190 188 183 187 172 176 190 184 180 179 178 179 179
59 55 51 48 45 43 44 43 38 31 24 7 348 348 345 340 334 334 42 32 31 34 28 26 23 20 17 15 12 6 0 2 0 352 343 335 330 335 297 289 150 111 79 41 340 331 324 314 318 313 319 328 320 314 327 329 318 262 240 234 223 220 221 221 219 213 161 177 178 190 179 172 183 194 191 192 190 190 192 183 177 175 174 175 176
59 58 55 50 46 44 42 42 39 33 25 360 353 352 350 342 335 336 45 36 36 35 31 29 27 23 20 19 10 6 3 4 2 351 341 338 347 348 352 354 352 22 63 44 14 357 349 333 327 320 325 329 312 312 313 311 308 299 272 240 226 225 227 227 218 209 173 172 188 175 196 186 186 194 199 190 186 186 191 175 171 171 171 174 172
61 58 56 54 49 45 45 43 41 36 29 5 2 356 350 345 330 11 40 39 38 35 33 28 28 24 18 14 10 6 2 2 1 344 339 337 352 353 354 356 359 358 359 1 354 352 352 345 341 334 330 330 321 317 315 316 305 290 293 286 258 240 236 229 226 216 167 185 183 180 209 182 176 196 201 184 152 178 176 168 170 168 169 169 162
62 63 53 52 53 50 45 45 43 37 29 14 2 359 352 350 329 40 38 42 41 38 33 29 26 27 22 14 9 5 2 3 352 342 339 330 347 0 2 358 1 1 2 10 337 287 332 331 337 330 321 310 296 301 315 328 318 308 288 278 274 270 257 230 211 146 185 185 188 186 205 174 175 186 64 27 117 162 149 157 164 159 155 148 140
74 69 66 59 55 51 47 46 44 40 34 16 6 3 356 356 343 42 37 38 37 34 34 28 25 25 23 19 15 4 1 2 349 342 345 335 353 355 3 358 1 0 3 3 357 336 346 318 292 306 286 299 313 308 326 342 336 319 292 273 260 246 245 243 217 183 193 172 194 192 178 152 130 106 62 35 38 34 9 87 124 139 133 128 120
72 70 73 71 64 58 50 49 44 45 40 25 13 7 2 359 344 27 29 35 31 25 27 26 21 19 20 28 15 10 2 358 347 348 351 343 3 360 355 355 359 358 354 360 1 356 358 348 357 340 331 331 333 340 358 352 346 344 343 316 311 271 238 235 232 209 190 177 187 160 108 118 94 104 102 71 57 33 32 16 86 108 114 113 111
76 74 69 68 70 65 60 53 28 38 45 34 19 11 9 5 357 17 28 33 27 25 21 21 23 20 20 29 21 8 357 346 345 352 353 354 1 9 356 356 355 357 351 348 2 356 359 1 2 359 359 358 357 354 355 358 357 358 353 333 321 313 264 232 229 184 184 17 348 137 114 122 113 97 105 100 70 34 42 55 46 89 95 93 99